Snel-info
Kleurcode:
Groen
Er mag gevlogen worden.
Laatste update: 06/02/2018
Kleurcode informatie

Grasmaaien:

Geen maaibeurten gepland.

Volgende vliegdagen:

  • ma 2 april : Paasmaandag
  • di 1 mei : Feest vd Arbeid
  • do 10 mei : O.H. Hemelvaart
Alle extra vliegdagen

Weersituatie op PMF:

IMG_3275.JPG

Huidige weersituatie

Huidig weerbeeld in Kleine Brogel, Belgium
Huidige wind in Kleine Brogel, Belgium

Dit is het bericht voor Kleine Brogel, Belgium en werd 33 minuten geleden gemaakt.
De wind waaide met een snelheid van 6.7 meter per seconde (24.1 km/h) uit het oost/noordoosten (070°).
De temperatuur was -3 °C. De gevoelstemperatuur was -10 °C. De atmosferische druk was 1023 hPa. De relative luchtvochtigheid was 53.9%. Het algemene zicht was meer dan 10 kilometer.

De onbewerkte METAR gegevens waarop dit bericht is gebaseerd zijn:
EBBL 240755Z AUTO 07013KT 9999 NCD M03/M11 Q1023 BLU


Opmerking:
De wind blijkt op PMF meestal iets krachtiger te waaien dan op Kleine Brogel. De windrichting klopt dan weer wel.




KMI

De weersvoorspellingen van het KMI vind je via deze link.


Buienradar

Op www.buienradar.nl kun je zelf zien waar het nu en de komende uren regent.